Time,TemperatureF,DewpointF,PressureIn,WindDirection,WindDirectionDegrees,WindSpeedMPH,WindSpeedGustMPH,Humidity,HourlyPrecipIn,Conditions,Clouds,dailyrainin,SoftwareType,DateUTC
2013-02-06 00:00:00,36.9,33.4,29.91,West,271,0.0,0.0,87,0.00,,---,0.00,VWS V14.01,2013-02-06 05:00:00,
2013-02-06 00:05:00,36.8,33.3,29.90,West,271,0.0,0.0,87,0.00,,---,0.00,VWS V14.01,2013-02-06 05:05:00,
2013-02-06 00:10:00,36.6,33.1,29.91,West,271,0.0,0.0,87,0.00,,---,0.00,VWS V14.01,2013-02-06 05:10:00,
2013-02-06 00:15:00,36.4,33.2,29.90,West,271,0.0,0.0,88,0.00,,---,0.00,VWS V14.01,2013-02-06 05:15:00,
2013-02-06 00:20:00,36.2,33.0,29.90,West,271,0.0,0.0,88,0.00,,---,0.00,VWS V14.01,2013-02-06 05:20:00,
2013-02-06 00:25:00,36.1,32.9,29.90,West,271,0.0,0.0,88,0.00,,---,0.00,VWS V14.01,2013-02-06 05:25:00,
2013-02-06 00:30:00,35.9,32.7,29.91,West,271,0.0,0.0,88,0.00,,---,0.00,VWS V14.01,2013-02-06 05:30:00,
2013-02-06 00:35:00,35.7,32.8,29.91,West,271,0.0,0.0,89,0.00,,---,0.00,VWS V14.01,2013-02-06 05:35:00,
2013-02-06 00:40:00,35.7,32.5,29.91,West,271,0.0,0.0,88,0.00,,---,0.00,VWS V14.01,2013-02-06 05:40:00,
2013-02-06 00:45:00,35.5,32.3,29.91,West,271,0.0,0.0,88,0.00,,---,0.00,VWS V14.01,2013-02-06 05:45:00,
2013-02-06 00:50:00,35.4,32.2,29.92,West,271,0.0,0.0,88,0.00,,---,0.00,VWS V14.01,2013-02-06 05:50:00,
2013-02-06 00:55:00,35.2,32.3,29.92,West,271,0.0,0.0,89,0.00,,---,0.00,VWS V14.01,2013-02-06 05:55:00,
2013-02-06 01:00:00,35.1,32.2,29.91,West,271,0.0,0.0,89,0.00,,---,0.00,VWS V14.01,2013-02-06 06:00:00,
2013-02-06 01:05:00,35.0,32.1,29.91,West,271,0.0,0.0,89,0.00,,---,0.00,VWS V14.01,2013-02-06 06:05:00,
2013-02-06 01:10:00,34.6,31.7,29.91,West,271,0.0,0.0,89,0.00,,---,0.00,VWS V14.01,2013-02-06 06:10:00,
2013-02-06 01:15:00,34.4,31.8,29.91,West,271,0.0,0.0,90,0.00,,---,0.00,VWS V14.01,2013-02-06 06:15:00,
2013-02-06 01:20:00,34.4,31.8,29.91,West,271,0.0,0.0,90,0.00,,---,0.00,VWS V14.01,2013-02-06 06:20:00,
2013-02-06 01:25:00,34.3,31.7,29.91,West,271,0.0,0.0,90,0.00,,---,0.00,VWS V14.01,2013-02-06 06:25:00,
2013-02-06 01:30:00,34.2,31.6,29.91,West,271,0.0,0.0,90,0.00,,---,0.00,VWS V14.01,2013-02-06 06:30:00,
2013-02-06 01:35:00,34.0,31.4,29.91,West,271,0.0,0.0,90,0.00,,---,0.00,VWS V14.01,2013-02-06 06:35:00,
2013-02-06 01:40:00,33.9,31.3,29.91,West,271,0.0,0.0,90,0.00,,---,0.00,VWS V14.01,2013-02-06 06:40:00,
2013-02-06 01:45:00,33.7,31.1,29.91,West,271,0.0,0.0,90,0.00,,---,0.00,VWS V14.01,2013-02-06 06:45:00,
2013-02-06 01:50:00,33.6,31.0,29.91,West,271,0.0,0.0,90,0.00,,---,0.00,VWS V14.01,2013-02-06 06:50:00,
2013-02-06 01:55:00,33.4,31.1,29.92,West,271,0.0,0.0,91,0.00,,---,0.00,VWS V14.01,2013-02-06 06:55:00,
2013-02-06 02:00:00,33.4,31.1,29.91,West,271,0.0,0.0,91,0.00,,---,0.00,VWS V14.01,2013-02-06 07:00:00,
2013-02-06 02:05:00,33.3,31.0,29.92,West,271,0.0,0.0,91,0.00,,---,0.00,VWS V14.01,2013-02-06 07:05:00,
2013-02-06 02:10:00,33.2,30.9,29.92,West,271,0.0,0.0,91,0.00,,---,0.00,VWS V14.01,2013-02-06 07:10:00,
2013-02-06 02:15:00,33.1,30.8,29.92,West,271,0.0,0.0,91,0.00,,---,0.00,VWS V14.01,2013-02-06 07:15:00,
2013-02-06 02:20:00,33.1,30.8,29.92,West,271,0.0,0.0,91,0.00,,---,0.00,VWS V14.01,2013-02-06 07:20:00,
2013-02-06 02:25:00,33.0,30.7,29.92,West,271,0.0,0.0,91,0.00,,---,0.00,VWS V14.01,2013-02-06 07:25:00,
2013-02-06 02:30:00,32.8,30.5,29.92,West,271,0.0,0.0,91,0.00,,---,0.00,VWS V14.01,2013-02-06 07:30:00,
2013-02-06 02:35:00,32.7,30.4,29.92,West,271,0.0,0.0,91,0.00,,---,0.00,VWS V14.01,2013-02-06 07:35:00,
2013-02-06 02:40:00,32.5,30.2,29.92,West,271,0.0,0.0,91,0.00,,---,0.00,VWS V14.01,2013-02-06 07:40:00,
2013-02-06 02:45:00,32.4,30.1,29.92,West,271,0.0,0.0,91,0.00,,---,0.00,VWS V14.01,2013-02-06 07:45:00,
2013-02-06 02:50:00,32.3,30.0,29.92,West,271,0.0,0.0,91,0.00,,---,0.00,VWS V14.01,2013-02-06 07:50:00,
2013-02-06 02:55:00,32.1,30.0,29.92,West,271,0.0,0.0,92,0.00,,---,0.00,VWS V14.01,2013-02-06 07:55:00,
2013-02-06 03:00:00,32.1,30.0,29.92,West,271,0.0,0.0,92,0.00,,---,0.00,VWS V14.01,2013-02-06 08:00:00,
2013-02-06 03:05:00,32.0,29.9,29.92,West,271,0.0,0.0,92,0.00,,---,0.00,VWS V14.01,2013-02-06 08:05:00,
2013-02-06 03:10:00,31.8,29.8,29.92,West,271,0.0,0.0,92,0.00,,---,0.00,VWS V14.01,2013-02-06 08:10:00,
2013-02-06 03:15:00,31.7,29.6,29.92,West,271,0.0,0.0,92,0.00,,---,0.00,VWS V14.01,2013-02-06 08:15:00,
2013-02-06 03:20:00,31.6,29.5,29.92,West,271,0.0,0.0,92,0.00,,---,0.00,VWS V14.01,2013-02-06 08:20:00,
2013-02-06 03:25:00,31.5,29.5,29.92,West,271,0.0,0.0,92,0.00,,---,0.00,VWS V14.01,2013-02-06 08:25:00,
2013-02-06 03:30:00,31.5,29.7,29.92,West,271,0.0,0.0,93,0.00,,---,0.00,VWS V14.01,2013-02-06 08:30:00,
2013-02-06 03:35:00,31.4,29.6,29.93,West,271,0.0,0.0,93,0.00,,---,0.00,VWS V14.01,2013-02-06 08:35:00,
2013-02-06 03:40:00,31.3,29.5,29.93,West,271,0.0,0.0,93,0.00,,---,0.00,VWS V14.01,2013-02-06 08:40:00,
2013-02-06 03:45:00,31.2,29.4,29.93,West,271,0.0,0.0,93,0.00,,---,0.00,VWS V14.01,2013-02-06 08:45:00,
2013-02-06 03:50:00,31.2,29.4,29.93,West,271,0.0,0.0,93,0.00,,---,0.00,VWS V14.01,2013-02-06 08:50:00,
2013-02-06 03:55:00,31.1,29.3,29.93,West,271,0.0,0.0,93,0.00,,---,0.00,VWS V14.01,2013-02-06 08:55:00,
2013-02-06 04:00:00,31.0,29.2,29.93,West,271,0.0,0.0,93,0.00,,---,0.00,VWS V14.01,2013-02-06 09:00:00,
2013-02-06 04:05:00,30.9,29.1,29.93,West,271,0.0,0.0,93,0.00,,---,0.00,VWS V14.01,2013-02-06 09:05:00,
2013-02-06 04:10:00,30.9,29.1,29.93,West,271,0.0,0.0,93,0.00,,---,0.00,VWS V14.01,2013-02-06 09:10:00,
2013-02-06 04:15:00,30.8,29.0,29.94,West,271,0.0,0.0,93,0.00,,---,0.00,VWS V14.01,2013-02-06 09:15:00,
2013-02-06 04:20:00,30.7,28.9,29.94,West,271,0.0,0.0,93,0.00,,---,0.00,VWS V14.01,2013-02-06 09:20:00,
2013-02-06 04:25:00,30.7,28.9,29.94,West,271,0.0,0.0,93,0.00,,---,0.00,VWS V14.01,2013-02-06 09:25:00,
2013-02-06 04:30:00,30.6,28.8,29.94,West,271,0.0,0.0,93,0.00,,---,0.00,VWS V14.01,2013-02-06 09:30:00,
2013-02-06 04:35:00,30.6,29.1,29.94,West,271,0.0,0.0,94,0.00,,---,0.00,VWS V14.01,2013-02-06 09:35:00,
2013-02-06 04:40:00,30.5,29.0,29.94,West,271,0.0,0.0,94,0.00,,---,0.00,VWS V14.01,2013-02-06 09:40:00,
2013-02-06 04:45:00,30.5,28.7,29.94,West,271,0.0,0.0,93,0.00,,---,0.00,VWS V14.01,2013-02-06 09:45:00,
2013-02-06 04:50:00,30.4,28.6,29.94,West,271,0.0,0.0,93,0.00,,---,0.00,VWS V14.01,2013-02-06 09:50:00,
2013-02-06 04:55:00,30.4,28.9,29.94,West,271,0.0,0.0,94,0.00,,---,0.00,VWS V14.01,2013-02-06 09:55:00,
2013-02-06 05:00:00,30.3,28.8,29.95,West,271,0.0,0.0,94,0.00,,---,0.00,VWS V14.01,2013-02-06 10:00:00,
2013-02-06 05:05:00,30.3,28.8,29.95,West,271,0.0,0.0,94,0.00,,---,0.00,VWS V14.01,2013-02-06 10:05:00,
2013-02-06 05:10:00,30.2,28.7,29.95,West,271,0.0,0.0,94,0.00,,---,0.00,VWS V14.01,2013-02-06 10:10:00,
2013-02-06 05:15:00,30.2,28.7,29.95,West,271,0.0,0.0,94,0.00,,---,0.00,VWS V14.01,2013-02-06 10:15:00,
2013-02-06 05:20:00,30.1,28.3,29.95,West,271,0.0,0.0,93,0.00,,---,0.00,VWS V14.01,2013-02-06 10:20:00,
2013-02-06 05:25:00,30.0,28.2,29.96,West,271,0.0,0.0,93,0.00,,---,0.00,VWS V14.01,2013-02-06 10:25:00,
2013-02-06 05:30:00,30.0,28.2,29.96,West,271,0.0,0.0,93,0.00,,---,0.00,VWS V14.01,2013-02-06 10:30:00,
2013-02-06 05:35:00,29.9,28.1,29.96,West,271,0.0,0.0,93,0.00,,---,0.00,VWS V14.01,2013-02-06 10:35:00,
2013-02-06 05:40:00,29.9,28.4,29.96,West,271,0.0,0.0,94,0.00,,---,0.00,VWS V14.01,2013-02-06 10:40:00,
2013-02-06 05:45:00,29.8,28.3,29.97,West,271,0.0,0.0,94,0.00,,---,0.00,VWS V14.01,2013-02-06 10:45:00,
2013-02-06 05:50:00,29.8,28.3,29.97,West,271,0.0,0.0,94,0.00,,---,0.00,VWS V14.01,2013-02-06 10:50:00,
2013-02-06 05:55:00,29.7,28.2,29.97,West,271,0.0,0.0,94,0.00,,---,0.00,VWS V14.01,2013-02-06 10:55:00,
2013-02-06 06:00:00,29.7,28.2,29.97,West,271,0.0,0.0,94,0.00,,---,0.00,VWS V14.01,2013-02-06 11:00:00,
2013-02-06 06:05:00,29.6,28.1,29.98,West,271,0.0,0.0,94,0.00,,---,0.00,VWS V14.01,2013-02-06 11:05:00,
2013-02-06 06:10:00,29.6,28.1,29.98,West,271,0.0,0.0,94,0.00,,---,0.00,VWS V14.01,2013-02-06 11:10:00,
2013-02-06 06:15:00,29.6,28.1,29.98,West,271,0.0,0.0,94,0.00,,---,0.00,VWS V14.01,2013-02-06 11:15:00,
2013-02-06 06:20:00,29.5,28.0,29.99,West,271,0.0,0.0,94,0.00,,---,0.00,VWS V14.01,2013-02-06 11:20:00,
2013-02-06 06:25:00,29.4,27.9,29.99,West,271,0.0,0.0,94,0.00,,---,0.00,VWS V14.01,2013-02-06 11:25:00,
2013-02-06 06:30:00,29.3,27.8,29.99,West,271,0.0,0.0,94,0.00,,---,0.00,VWS V14.01,2013-02-06 11:30:00,
2013-02-06 06:35:00,29.3,27.8,30.00,West,271,0.0,0.0,94,0.00,,---,0.00,VWS V14.01,2013-02-06 11:35:00,
2013-02-06 06:40:00,29.3,27.8,30.00,West,271,0.0,0.0,94,0.00,,---,0.00,VWS V14.01,2013-02-06 11:40:00,
2013-02-06 06:45:00,29.2,27.7,30.00,West,271,0.0,0.0,94,0.00,,---,0.00,VWS V14.01,2013-02-06 11:45:00,
2013-02-06 06:50:00,29.2,27.7,30.00,West,271,0.0,0.0,94,0.00,,---,0.00,VWS V14.01,2013-02-06 11:50:00,
2013-02-06 06:55:00,29.2,27.7,30.00,West,271,0.0,0.0,94,0.00,,---,0.00,VWS V14.01,2013-02-06 11:55:00,
2013-02-06 07:00:00,29.2,27.7,30.01,West,271,0.0,0.0,94,0.00,,---,0.00,VWS V14.01,2013-02-06 12:00:00,
2013-02-06 07:05:00,29.1,27.6,30.01,West,271,0.0,0.0,94,0.00,,---,0.00,VWS V14.01,2013-02-06 12:05:00,
2013-02-06 07:10:00,29.0,27.5,30.02,West,271,0.0,0.0,94,0.00,,---,0.00,VWS V14.01,2013-02-06 12:10:00,
2013-02-06 07:15:00,29.0,27.5,30.02,West,271,0.0,0.0,94,0.00,,---,0.00,VWS V14.01,2013-02-06 12:15:00,
2013-02-06 07:20:00,28.9,27.4,30.03,West,271,0.0,0.0,94,0.00,,---,0.00,VWS V14.01,2013-02-06 12:20:00,
2013-02-06 07:25:00,28.9,27.4,30.03,West,271,0.0,0.0,94,0.00,,---,0.00,VWS V14.01,2013-02-06 12:25:00,
2013-02-06 07:30:00,28.9,27.4,30.03,West,271,0.0,0.0,94,0.00,,---,0.00,VWS V14.01,2013-02-06 12:30:00,
2013-02-06 07:35:00,28.9,27.4,30.04,West,271,0.0,0.0,94,0.00,,---,0.00,VWS V14.01,2013-02-06 12:35:00,
2013-02-06 07:40:00,28.9,27.4,30.04,West,271,0.0,0.0,94,0.00,,---,0.00,VWS V14.01,2013-02-06 12:40:00,
2013-02-06 07:45:00,28.9,27.4,30.04,West,271,0.0,0.0,94,0.00,,---,0.00,VWS V14.01,2013-02-06 12:45:00,
2013-02-06 07:50:00,29.0,27.8,30.04,West,271,0.0,0.0,95,0.00,,---,0.00,VWS V14.01,2013-02-06 12:50:00,
2013-02-06 07:54:00,29.0,27.8,30.04,West,271,0.0,0.0,95,0.00,,---,0.00,VWS V14.01,2013-02-06 12:54:00,
2013-02-06 07:59:00,29.1,27.9,30.05,West,271,0.0,0.0,95,0.00,,---,0.00,VWS V14.01,2013-02-06 12:59:00,
2013-02-06 08:00:00,29.1,27.9,30.05,West,271,0.0,0.0,95,0.00,,---,0.00,VWS V14.01,2013-02-06 13:00:00,
2013-02-06 08:04:00,29.3,28.0,30.05,West,271,0.0,0.0,95,0.00,,---,0.00,VWS V14.01,2013-02-06 13:04:00,
2013-02-06 08:09:00,29.4,28.1,30.06,West,271,0.0,0.0,95,0.00,,---,0.00,VWS V14.01,2013-02-06 13:09:00,
2013-02-06 08:14:00,29.5,28.2,30.06,West,271,0.0,0.0,95,0.00,,---,0.00,VWS V14.01,2013-02-06 13:14:00,
2013-02-06 08:19:00,29.9,28.6,30.06,West,271,0.0,0.0,95,0.00,,---,0.00,VWS V14.01,2013-02-06 13:19:00,
2013-02-06 08:24:00,30.2,28.9,30.07,West,271,0.0,0.0,95,0.00,,---,0.00,VWS V14.01,2013-02-06 13:24:00,
2013-02-06 08:29:00,30.7,29.7,30.07,West,271,0.0,0.0,96,0.00,,---,0.00,VWS V14.01,2013-02-06 13:29:00,
2013-02-06 08:30:00,30.8,29.8,30.07,West,271,0.0,0.0,96,0.00,,---,0.00,VWS V14.01,2013-02-06 13:30:00,
2013-02-06 08:34:00,31.2,30.2,30.07,West,271,0.0,0.0,96,0.00,,---,0.00,VWS V14.01,2013-02-06 13:34:00,
2013-02-06 08:39:00,31.9,30.9,30.07,West,271,0.0,0.0,96,0.00,,---,0.00,VWS V14.01,2013-02-06 13:39:00,
2013-02-06 08:44:00,32.4,31.4,30.07,West,271,0.0,0.0,96,0.00,,---,0.00,VWS V14.01,2013-02-06 13:44:00,
2013-02-06 08:49:00,33.1,32.1,30.07,West,271,0.0,0.0,96,0.00,,---,0.00,VWS V14.01,2013-02-06 13:49:00,
2013-02-06 08:54:00,34.1,33.3,30.07,West,271,0.0,1.0,97,0.00,,---,0.00,VWS V14.01,2013-02-06 13:54:00,
2013-02-06 08:59:00,35.0,34.2,30.07,West,271,0.0,2.0,97,0.00,,---,0.00,VWS V14.01,2013-02-06 13:59:00,
2013-02-06 09:00:00,35.3,34.5,30.07,West,271,0.0,2.0,97,0.00,,---,0.00,VWS V14.01,2013-02-06 14:00:00,
2013-02-06 09:04:00,36.0,35.2,30.07,West,271,0.0,0.0,97,0.00,,---,0.00,VWS V14.01,2013-02-06 14:04:00,
2013-02-06 09:09:00,37.0,36.2,30.07,West,271,0.0,1.0,97,0.00,,---,0.00,VWS V14.01,2013-02-06 14:09:00,
2013-02-06 09:14:00,37.7,36.9,30.07,West,271,0.0,3.0,97,0.00,,---,0.00,VWS V14.01,2013-02-06 14:14:00,
2013-02-06 09:19:00,38.5,37.7,30.08,West,271,1.0,3.0,97,0.00,,---,0.00,VWS V14.01,2013-02-06 14:19:00,
2013-02-06 09:24:00,39.3,38.5,30.08,WNW,303,3.0,3.0,97,0.00,,---,0.00,VWS V14.01,2013-02-06 14:24:00,
2013-02-06 09:29:00,40.3,39.5,30.08,WNW,303,0.0,3.0,97,0.00,,---,0.00,VWS V14.01,2013-02-06 14:29:00,
2013-02-06 09:30:00,40.5,39.7,30.08,WNW,303,1.0,3.0,97,0.00,,---,0.00,VWS V14.01,2013-02-06 14:30:00,
2013-02-06 09:34:00,41.4,40.1,30.08,WNW,286,2.0,3.0,95,0.00,,---,0.00,VWS V14.01,2013-02-06 14:34:00,
2013-02-06 09:39:00,42.8,39.5,30.08,North,360,0.0,3.0,88,0.00,,---,0.00,VWS V14.01,2013-02-06 14:39:00,
2013-02-06 09:44:00,44.0,38.9,30.08,ENE,64,2.0,4.0,82,0.00,,---,0.00,VWS V14.01,2013-02-06 14:44:00,
2013-02-06 09:49:00,45.4,39.0,30.08,NE,40,0.0,5.0,78,0.00,,---,0.00,VWS V14.01,2013-02-06 14:49:00,
2013-02-06 09:54:00,46.5,39.0,30.08,NNE,17,2.0,5.0,75,0.00,,---,0.00,VWS V14.01,2013-02-06 14:54:00,
2013-02-06 09:59:00,47.6,38.7,30.08,NE,45,2.0,5.0,71,0.00,,---,0.00,VWS V14.01,2013-02-06 14:59:00,
2013-02-06 10:00:00,48.0,38.7,30.08,WNW,294,2.0,5.0,70,0.00,,---,0.00,VWS V14.01,2013-02-06 15:00:00,
2013-02-06 10:04:00,48.7,38.6,30.08,NNW,344,0.0,4.0,68,0.00,,---,0.00,VWS V14.01,2013-02-06 15:04:00,
2013-02-06 10:09:00,49.6,38.3,30.08,WNW,290,3.0,8.0,65,0.00,,---,0.00,VWS V14.01,2013-02-06 15:09:00,
2013-02-06 10:14:00,50.4,38.3,30.08,WSW,248,2.0,9.0,63,0.00,,---,0.00,VWS V14.01,2013-02-06 15:14:00,
2013-02-06 10:19:00,51.0,38.5,30.08,WSW,238,1.0,9.0,62,0.00,,---,0.00,VWS V14.01,2013-02-06 15:19:00,
2013-02-06 10:24:00,51.8,37.5,30.09,NE,53,2.0,9.0,58,0.00,,---,0.00,VWS V14.01,2013-02-06 15:24:00,
2013-02-06 10:29:00,52.4,37.6,30.08,WNW,287,2.0,9.0,57,0.00,,---,0.00,VWS V14.01,2013-02-06 15:29:00,
2013-02-06 10:30:00,52.6,38.3,30.08,North,5,2.0,9.0,58,0.00,,---,0.00,VWS V14.01,2013-02-06 15:30:00,
2013-02-06 10:34:00,52.9,37.7,30.09,WNW,288,4.0,4.0,56,0.00,,---,0.00,VWS V14.01,2013-02-06 15:34:00,
2013-02-06 10:39:00,53.4,36.7,30.09,NE,51,2.0,8.0,53,0.00,,---,0.00,VWS V14.01,2013-02-06 15:39:00,
2013-02-06 10:44:00,53.8,37.1,30.08,East,81,0.0,8.0,53,0.00,,---,0.00,VWS V14.01,2013-02-06 15:44:00,
2013-02-06 10:49:00,54.2,36.5,30.08,NW,309,1.0,8.0,51,0.00,,---,0.00,VWS V14.01,2013-02-06 15:49:00,
2013-02-06 10:54:00,54.5,36.8,30.09,WNW,302,2.0,8.0,51,0.00,,---,0.00,VWS V14.01,2013-02-06 15:54:00,
2013-02-06 10:59:00,54.8,36.0,30.09,NW,311,4.0,8.0,49,0.00,,---,0.00,VWS V14.01,2013-02-06 15:59:00,
2013-02-06 11:00:00,54.8,36.0,30.09,West,259,2.0,8.0,49,0.00,,---,0.00,VWS V14.01,2013-02-06 16:00:00,
2013-02-06 11:04:00,55.0,36.2,30.09,West,267,0.0,7.0,49,0.00,,---,0.00,VWS V14.01,2013-02-06 16:04:00,
2013-02-06 11:09:00,55.2,36.4,30.09,North,355,4.0,7.0,49,0.00,,---,0.00,VWS V14.01,2013-02-06 16:09:00,
2013-02-06 11:14:00,55.5,36.7,30.08,West,281,4.0,7.0,49,0.00,,---,0.00,VWS V14.01,2013-02-06 16:14:00,
2013-02-06 11:19:00,55.8,36.4,30.08,NNW,348,2.0,10.0,48,0.00,,---,0.00,VWS V14.01,2013-02-06 16:19:00,
2013-02-06 11:24:00,56.1,37.2,30.08,NNW,337,1.0,10.0,49,0.00,,---,0.00,VWS V14.01,2013-02-06 16:24:00,
2013-02-06 11:29:00,56.4,35.9,30.08,ENE,57,2.0,10.0,46,0.00,,---,0.00,VWS V14.01,2013-02-06 16:29:00,
2013-02-06 11:30:00,56.6,36.1,30.08,NNW,330,1.0,10.0,46,0.00,,---,0.00,VWS V14.01,2013-02-06 16:30:00,
2013-02-06 11:34:00,56.8,35.7,30.08,NW,325,4.0,6.0,45,0.00,,---,0.00,VWS V14.01,2013-02-06 16:34:00,
2013-02-06 11:39:00,57.1,36.0,30.08,WNW,290,1.0,9.0,45,0.00,,---,0.00,VWS V14.01,2013-02-06 16:39:00,
2013-02-06 11:44:00,57.5,35.8,30.08,NNE,13,3.0,9.0,44,0.00,,---,0.00,VWS V14.01,2013-02-06 16:44:00,
2013-02-06 11:49:00,57.8,35.5,30.08,West,271,1.0,9.0,43,0.00,,---,0.00,VWS V14.01,2013-02-06 16:49:00,
2013-02-06 11:54:00,58.0,35.1,30.08,NW,323,1.0,9.0,42,0.00,,---,0.00,VWS V14.01,2013-02-06 16:54:00,
2013-02-06 11:59:00,58.1,35.7,30.07,NNW,336,4.0,9.0,43,0.00,,---,0.00,VWS V14.01,2013-02-06 16:59:00,
2013-02-06 12:00:00,58.2,35.2,30.07,NNW,348,2.0,9.0,42,0.00,,---,0.00,VWS V14.01,2013-02-06 17:00:00,
2013-02-06 12:04:00,58.2,34.6,30.08,WNW,294,2.0,5.0,41,0.00,,---,0.00,VWS V14.01,2013-02-06 17:04:00,
2013-02-06 12:09:00,58.4,35.4,30.08,NW,319,0.0,5.0,42,0.00,,---,0.00,VWS V14.01,2013-02-06 17:09:00,
2013-02-06 12:14:00,58.6,35.0,30.08,NW,311,3.0,7.0,41,0.00,,---,0.00,VWS V14.01,2013-02-06 17:14:00,
2013-02-06 12:19:00,58.7,35.7,30.08,North,355,3.0,7.0,42,0.00,,---,0.00,VWS V14.01,2013-02-06 17:19:00,
2013-02-06 12:24:00,58.8,35.2,30.08,WNW,291,1.0,7.0,41,0.00,,---,0.00,VWS V14.01,2013-02-06 17:24:00,
2013-02-06 12:29:00,58.9,34.0,30.08,West,278,4.0,9.0,39,0.00,,---,0.00,VWS V14.01,2013-02-06 17:29:00,
2013-02-06 12:30:00,58.9,34.0,30.08,WNW,294,6.0,9.0,39,0.00,,---,0.00,VWS V14.01,2013-02-06 17:30:00,
2013-02-06 12:34:00,59.0,34.7,30.07,NW,311,2.0,7.0,40,0.00,,---,0.00,VWS V14.01,2013-02-06 17:34:00,
2013-02-06 12:39:00,59.1,34.2,30.07,NE,40,1.0,7.0,39,0.00,,---,0.00,VWS V14.01,2013-02-06 17:39:00,
2013-02-06 12:44:00,59.4,33.8,30.06,WNW,298,3.0,7.0,38,0.00,,---,0.00,VWS V14.01,2013-02-06 17:44:00,
2013-02-06 12:49:00,59.6,33.3,30.07,West,276,0.0,7.0,37,0.00,,---,0.00,VWS V14.01,2013-02-06 17:49:00,
2013-02-06 12:54:00,59.8,33.5,30.06,WNW,303,2.0,7.0,37,0.00,,---,0.00,VWS V14.01,2013-02-06 17:54:00,
2013-02-06 12:59:00,60.0,33.7,30.06,NW,319,4.0,11.0,37,0.00,,---,0.00,VWS V14.01,2013-02-06 17:59:00,
2013-02-06 13:00:00,60.1,33.8,30.06,WNW,298,2.0,11.0,37,0.00,,---,0.00,VWS V14.01,2013-02-06 18:00:00,
2013-02-06 13:04:00,60.2,33.2,30.06,ENE,57,1.0,4.0,36,0.00,,---,0.00,VWS V14.01,2013-02-06 18:04:00,
2013-02-06 13:09:00,60.3,33.9,30.06,West,265,3.0,5.0,37,0.00,,---,0.00,VWS V14.01,2013-02-06 18:09:00,
2013-02-06 13:14:00,60.4,34.0,30.06,NNW,327,3.0,5.0,37,0.00,,---,0.00,VWS V14.01,2013-02-06 18:14:00,
2013-02-06 13:19:00,60.5,32.7,30.06,NE,44,2.0,6.0,35,0.00,,---,0.00,VWS V14.01,2013-02-06 18:19:00,
2013-02-06 13:24:00,60.7,32.2,30.06,WNW,292,2.0,7.0,34,0.00,,---,0.00,VWS V14.01,2013-02-06 18:24:00,
2013-02-06 13:29:00,60.9,32.4,30.06,NNE,31,3.0,7.0,34,0.00,,---,0.00,VWS V14.01,2013-02-06 18:29:00,
2013-02-06 13:30:00,61.0,31.7,30.06,ENE,58,1.0,7.0,33,0.00,,---,0.00,VWS V14.01,2013-02-06 18:30:00,
2013-02-06 13:34:00,61.1,32.5,30.06,NE,37,7.0,11.0,34,0.00,,---,0.00,VWS V14.01,2013-02-06 18:34:00,
2013-02-06 13:39:00,61.2,30.4,30.06,NNE,23,1.0,11.0,31,0.00,,---,0.00,VWS V14.01,2013-02-06 18:39:00,
2013-02-06 13:44:00,61.4,32.1,30.06,NW,309,1.0,11.0,33,0.00,,---,0.00,VWS V14.01,2013-02-06 18:44:00,
2013-02-06 13:49:00,61.7,32.3,30.05,East,81,4.0,11.0,33,0.00,,---,0.00,VWS V14.01,2013-02-06 18:49:00,
2013-02-06 13:54:00,61.8,31.6,30.06,NW,306,4.0,11.0,32,0.00,,---,0.00,VWS V14.01,2013-02-06 18:54:00,
2013-02-06 13:59:00,62.0,30.2,30.05,West,275,2.0,11.0,30,0.00,,---,0.00,VWS V14.01,2013-02-06 18:59:00,
2013-02-06 14:00:00,62.1,29.5,30.05,North,360,3.0,11.0,29,0.00,,---,0.00,VWS V14.01,2013-02-06 19:00:00,
2013-02-06 14:04:00,62.1,28.6,30.05,NNW,348,3.0,4.0,28,0.00,,---,0.00,VWS V14.01,2013-02-06 19:04:00,
2013-02-06 14:09:00,62.3,29.7,30.05,WSW,245,3.0,6.0,29,0.00,,---,0.00,VWS V14.01,2013-02-06 19:09:00,
2013-02-06 14:14:00,62.6,28.2,30.05,WSW,246,1.0,6.0,27,0.00,,---,0.00,VWS V14.01,2013-02-06 19:14:00,
2013-02-06 14:19:00,63.0,28.5,30.05,WNW,292,1.0,6.0,27,0.00,,---,0.00,VWS V14.01,2013-02-06 19:19:00,
2013-02-06 14:24:00,63.2,29.6,30.05,NNE,22,3.0,6.0,28,0.00,,---,0.00,VWS V14.01,2013-02-06 19:24:00,
2013-02-06 14:29:00,63.4,29.8,30.05,NW,307,3.0,6.0,28,0.00,,---,0.00,VWS V14.01,2013-02-06 19:29:00,
2013-02-06 14:30:00,63.5,29.0,30.05,NW,318,2.0,6.0,27,0.00,,---,0.00,VWS V14.01,2013-02-06 19:30:00,
2013-02-06 14:34:00,63.5,28.0,30.05,SSW,200,1.0,4.0,26,0.00,,---,0.00,VWS V14.01,2013-02-06 19:34:00,
2013-02-06 14:39:00,63.6,28.1,30.05,West,267,0.0,5.0,26,0.00,,---,0.00,VWS V14.01,2013-02-06 19:39:00,
2013-02-06 14:44:00,63.8,27.3,30.05,NE,37,4.0,5.0,25,0.00,,---,0.00,VWS V14.01,2013-02-06 19:44:00,
2013-02-06 14:49:00,63.8,28.3,30.05,ESE,119,2.0,5.0,26,0.00,,---,0.00,VWS V14.01,2013-02-06 19:49:00,
2013-02-06 14:54:00,63.7,26.3,30.05,SW,225,0.0,5.0,24,0.00,,---,0.00,VWS V14.01,2013-02-06 19:54:00,
2013-02-06 14:59:00,63.6,29.0,30.05,WNW,288,1.0,6.0,27,0.00,,---,0.00,VWS V14.01,2013-02-06 19:59:00,
2013-02-06 15:00:00,63.6,25.1,30.05,WSW,246,4.0,6.0,23,0.00,,---,0.00,VWS V14.01,2013-02-06 20:00:00,
2013-02-06 15:04:00,63.6,27.2,30.05,West,265,3.0,4.0,25,0.00,,---,0.00,VWS V14.01,2013-02-06 20:04:00,
2013-02-06 15:09:00,63.6,25.1,30.05,SW,221,1.0,5.0,23,0.00,,---,0.00,VWS V14.01,2013-02-06 20:09:00,
2013-02-06 15:14:00,63.7,27.2,30.05,WNW,284,1.0,5.0,25,0.00,,---,0.00,VWS V14.01,2013-02-06 20:14:00,
2013-02-06 15:19:00,63.7,27.2,30.05,ESE,113,1.0,5.0,25,0.00,,---,0.00,VWS V14.01,2013-02-06 20:19:00,
2013-02-06 15:24:00,63.7,27.2,30.05,NNE,32,0.0,5.0,25,0.00,,---,0.00,VWS V14.01,2013-02-06 20:24:00,
2013-02-06 15:29:00,63.7,28.2,30.06,NNE,32,0.0,5.0,26,0.00,,---,0.00,VWS V14.01,2013-02-06 20:29:00,
2013-02-06 15:30:00,63.8,27.3,30.05,NNE,19,2.0,5.0,25,0.00,,---,0.00,VWS V14.01,2013-02-06 20:30:00,
2013-02-06 15:34:00,63.7,27.2,30.05,NE,51,1.0,6.0,25,0.00,,---,0.00,VWS V14.01,2013-02-06 20:34:00,
2013-02-06 15:39:00,63.6,27.2,30.06,East,84,2.0,6.0,25,0.00,,---,0.00,VWS V14.01,2013-02-06 20:39:00,
2013-02-06 15:44:00,63.4,26.0,30.05,NE,42,2.0,6.0,24,0.00,,---,0.00,VWS V14.01,2013-02-06 20:44:00,
2013-02-06 15:49:00,63.2,26.8,30.05,NE,51,1.0,6.0,25,0.00,,---,0.00,VWS V14.01,2013-02-06 20:49:00,
2013-02-06 15:54:00,63.0,27.6,30.06,ENE,76,0.0,6.0,26,0.00,,---,0.00,VWS V14.01,2013-02-06 20:54:00,
2013-02-06 15:59:00,63.0,26.6,30.06,North,5,1.0,6.0,25,0.00,,---,0.00,VWS V14.01,2013-02-06 20:59:00,
2013-02-06 16:00:00,62.9,25.6,30.06,North,5,0.0,6.0,24,0.00,,---,0.00,VWS V14.01,2013-02-06 21:00:00,
2013-02-06 16:04:00,62.9,25.6,30.06,North,5,0.0,1.0,24,0.00,,---,0.00,VWS V14.01,2013-02-06 21:04:00,
2013-02-06 16:09:00,62.8,27.4,30.06,NE,36,2.0,5.0,26,0.00,,---,0.00,VWS V14.01,2013-02-06 21:09:00,
2013-02-06 16:14:00,62.6,27.3,30.06,East,83,2.0,5.0,26,0.00,,---,0.00,VWS V14.01,2013-02-06 21:14:00,
2013-02-06 16:19:00,62.3,27.0,30.06,NNW,329,1.0,9.0,26,0.00,,---,0.00,VWS V14.01,2013-02-06 21:19:00,
2013-02-06 16:24:00,62.2,26.9,30.07,NW,306,0.0,9.0,26,0.00,,---,0.00,VWS V14.01,2013-02-06 21:24:00,
2013-02-06 16:29:00,62.2,27.8,30.07,North,5,0.0,9.0,27,0.00,,---,0.00,VWS V14.01,2013-02-06 21:29:00,
2013-02-06 16:30:00,62.2,27.8,30.07,North,5,0.0,9.0,27,0.00,,---,0.00,VWS V14.01,2013-02-06 21:30:00,
2013-02-06 16:34:00,62.1,27.8,30.07,North,5,1.0,2.0,27,0.00,,---,0.00,VWS V14.01,2013-02-06 21:34:00,
2013-02-06 16:39:00,61.9,29.3,30.07,East,88,0.0,3.0,29,0.00,,---,0.00,VWS V14.01,2013-02-06 21:39:00,
2013-02-06 16:44:00,61.7,28.3,30.07,ENE,62,0.0,5.0,28,0.00,,---,0.00,VWS V14.01,2013-02-06 21:44:00,
2013-02-06 16:49:00,61.5,28.1,30.07,ENE,57,0.0,5.0,28,0.00,,---,0.00,VWS V14.01,2013-02-06 21:49:00,
2013-02-06 16:54:00,61.2,28.7,30.07,ENE,57,2.0,5.0,29,0.00,,---,0.00,VWS V14.01,2013-02-06 21:54:00,
2013-02-06 16:59:00,61.0,28.5,30.07,NNE,33,2.0,5.0,29,0.00,,---,0.00,VWS V14.01,2013-02-06 21:59:00,
2013-02-06 17:00:00,60.9,28.5,30.08,ESE,109,0.0,5.0,29,0.00,,---,0.00,VWS V14.01,2013-02-06 22:00:00,
2013-02-06 17:04:00,60.8,30.8,30.08,ESE,109,0.0,1.0,32,0.00,,---,0.00,VWS V14.01,2013-02-06 22:04:00,
2013-02-06 17:09:00,60.5,29.7,30.08,East,86,1.0,1.0,31,0.00,,---,0.00,VWS V14.01,2013-02-06 22:09:00,
2013-02-06 17:14:00,60.3,29.6,30.08,ESE,106,0.0,2.0,31,0.00,,---,0.00,VWS V14.01,2013-02-06 22:14:00,
2013-02-06 17:19:00,60.0,31.6,30.08,ESE,106,0.0,2.0,34,0.00,,---,0.00,VWS V14.01,2013-02-06 22:19:00,
2013-02-06 17:24:00,59.7,31.3,30.08,ESE,106,0.0,2.0,34,0.00,,---,0.00,VWS V14.01,2013-02-06 22:24:00,
2013-02-06 17:29:00,59.3,30.2,30.09,ESE,106,0.0,2.0,33,0.00,,---,0.00,VWS V14.01,2013-02-06 22:29:00,
2013-02-06 17:30:00,59.1,30.0,30.09,ESE,106,0.0,2.0,33,0.00,,---,0.00,VWS V14.01,2013-02-06 22:30:00,
2013-02-06 17:34:00,58.8,31.2,30.09,ESE,106,0.0,0.0,35,0.00,,---,0.00,VWS V14.01,2013-02-06 22:34:00,
2013-02-06 17:39:00,58.2,29.3,30.10,ESE,106,0.0,1.0,33,0.00,,---,0.00,VWS V14.01,2013-02-06 22:39:00,
2013-02-06 17:44:00,57.8,31.7,30.09,ESE,106,0.0,1.0,37,0.00,,---,0.00,VWS V14.01,2013-02-06 22:44:00,
2013-02-06 17:49:00,57.3,32.6,30.10,ESE,106,0.0,1.0,39,0.00,,---,0.00,VWS V14.01,2013-02-06 22:49:00,
2013-02-06 17:54:00,56.8,33.4,30.10,ESE,106,0.0,1.0,41,0.00,,---,0.00,VWS V14.01,2013-02-06 22:54:00,
2013-02-06 17:59:00,56.2,33.4,30.10,ESE,106,0.0,1.0,42,0.00,,---,0.00,VWS V14.01,2013-02-06 22:59:00,
2013-02-06 18:00:00,56.0,33.8,30.10,ESE,106,0.0,1.0,43,0.00,,---,0.00,VWS V14.01,2013-02-06 23:00:00,
2013-02-06 18:04:00,55.5,33.4,30.10,ESE,106,0.0,0.0,43,0.00,,---,0.00,VWS V14.01,2013-02-06 23:04:00,
2013-02-06 18:09:00,54.7,33.2,30.10,ESE,106,0.0,0.0,44,0.00,,---,0.00,VWS V14.01,2013-02-06 23:09:00,
2013-02-06 18:14:00,53.9,33.1,30.11,ESE,106,0.0,0.0,45,0.00,,---,0.00,VWS V14.01,2013-02-06 23:14:00,
2013-02-06 18:19:00,52.9,32.7,30.11,ESE,106,0.0,1.0,46,0.00,,---,0.00,VWS V14.01,2013-02-06 23:19:00,
2013-02-06 18:24:00,52.1,32.5,30.11,ESE,106,0.0,1.0,47,0.00,,---,0.00,VWS V14.01,2013-02-06 23:24:00,
2013-02-06 18:29:00,51.3,32.8,30.11,ESE,106,0.0,1.0,49,0.00,,---,0.00,VWS V14.01,2013-02-06 23:29:00,
2013-02-06 18:30:00,50.9,32.4,30.11,ESE,106,0.0,1.0,49,0.00,,---,0.00,VWS V14.01,2013-02-06 23:30:00,
2013-02-06 18:34:00,50.4,32.5,30.11,ESE,106,0.0,1.0,50,0.00,,---,0.00,VWS V14.01,2013-02-06 23:34:00,
2013-02-06 18:39:00,49.5,32.6,30.11,ESE,106,0.0,2.0,52,0.00,,---,0.00,VWS V14.01,2013-02-06 23:39:00,
2013-02-06 18:44:00,48.6,32.3,30.11,ESE,106,0.0,2.0,53,0.00,,---,0.00,VWS V14.01,2013-02-06 23:44:00,
2013-02-06 18:49:00,48.0,31.7,30.12,ESE,106,0.0,2.0,53,0.00,,---,0.00,VWS V14.01,2013-02-06 23:49:00,
2013-02-06 18:54:00,47.7,31.9,30.12,ESE,106,0.0,2.0,54,0.00,,---,0.00,VWS V14.01,2013-02-06 23:54:00,
2013-02-06 18:59:00,47.4,32.1,30.12,ESE,106,0.0,2.0,55,0.00,,---,0.00,VWS V14.01,2013-02-06 23:59:00,
2013-02-06 19:00:00,47.1,32.2,30.12,ESE,106,0.0,2.0,56,0.00,,---,0.00,VWS V14.01,2013-02-07 00:00:00,
2013-02-06 19:04:00,46.9,32.0,30.12,ESE,106,0.0,0.0,56,0.00,,---,0.00,VWS V14.01,2013-02-07 00:04:00,
2013-02-06 19:09:00,46.5,32.1,30.13,ESE,106,0.0,0.0,57,0.00,,---,0.00,VWS V14.01,2013-02-07 00:09:00,
2013-02-06 19:14:00,46.2,32.7,30.13,ESE,106,0.0,0.0,59,0.00,,---,0.00,VWS V14.01,2013-02-07 00:14:00,
2013-02-06 19:19:00,45.7,32.6,30.13,ESE,106,0.0,0.0,60,0.00,,---,0.00,VWS V14.01,2013-02-07 00:19:00,
2013-02-06 19:24:00,45.1,32.1,30.13,ESE,106,0.0,0.0,60,0.00,,---,0.00,VWS V14.01,2013-02-07 00:24:00,
2013-02-06 19:29:00,44.7,32.1,30.13,ESE,106,0.0,0.0,61,0.00,,---,0.00,VWS V14.01,2013-02-07 00:29:00,
2013-02-06 19:30:00,44.6,32.0,30.13,ESE,106,0.0,0.0,61,0.00,,---,0.00,VWS V14.01,2013-02-07 00:30:00,
2013-02-06 19:34:00,44.4,31.8,30.14,ESE,106,0.0,0.0,61,0.00,,---,0.00,VWS V14.01,2013-02-07 00:34:00,
2013-02-06 19:39:00,44.1,32.3,30.13,ESE,106,0.0,0.0,63,0.00,,---,0.00,VWS V14.01,2013-02-07 00:39:00,
2013-02-06 19:44:00,43.6,32.2,30.14,ESE,106,0.0,0.0,64,0.00,,---,0.00,VWS V14.01,2013-02-07 00:44:00,
2013-02-06 19:49:00,43.3,32.3,30.14,ESE,106,0.0,0.0,65,0.00,,---,0.00,VWS V14.01,2013-02-07 00:49:00,
2013-02-06 19:54:00,42.9,32.3,30.14,ESE,106,0.0,0.0,66,0.00,,---,0.00,VWS V14.01,2013-02-07 00:54:00,
2013-02-06 19:59:00,42.4,32.2,30.14,ESE,106,0.0,0.0,67,0.00,,---,0.00,VWS V14.01,2013-02-07 00:59:00,
2013-02-06 20:00:00,42.2,32.0,30.15,ESE,106,0.0,0.0,67,0.00,,---,0.00,VWS V14.01,2013-02-07 01:00:00,
2013-02-06 20:04:00,41.9,31.4,30.15,ESE,106,0.0,1.0,66,0.00,,---,0.00,VWS V14.01,2013-02-07 01:04:00,
2013-02-06 20:09:00,41.7,31.2,30.15,ESE,106,0.0,1.0,66,0.00,,---,0.00,VWS V14.01,2013-02-07 01:09:00,
2013-02-06 20:14:00,41.5,31.4,30.14,ESE,106,0.0,1.0,67,0.00,,---,0.00,VWS V14.01,2013-02-07 01:14:00,
2013-02-06 20:19:00,41.3,31.2,30.15,ESE,106,0.0,1.0,67,0.00,,---,0.00,VWS V14.01,2013-02-07 01:19:00,
2013-02-06 20:24:00,41.1,31.4,30.15,ESE,106,0.0,1.0,68,0.00,,---,0.00,VWS V14.01,2013-02-07 01:24:00,
2013-02-06 20:29:00,40.9,31.5,30.15,ESE,106,0.0,1.0,69,0.00,,---,0.00,VWS V14.01,2013-02-07 01:29:00,
2013-02-06 20:30:00,40.7,31.7,30.15,ESE,106,0.0,1.0,70,0.00,,---,0.00,VWS V14.01,2013-02-07 01:30:00,
2013-02-06 20:34:00,40.5,31.5,30.15,ESE,106,0.0,1.0,70,0.00,,---,0.00,VWS V14.01,2013-02-07 01:34:00,
2013-02-06 20:39:00,40.1,30.8,30.15,ESE,106,1.0,1.0,69,0.00,,---,0.00,VWS V14.01,2013-02-07 01:39:00,
2013-02-06 20:44:00,39.8,30.5,30.15,ESE,106,0.0,1.0,69,0.00,,---,0.00,VWS V14.01,2013-02-07 01:44:00,
2013-02-06 20:49:00,39.6,29.9,30.15,ESE,106,0.0,1.0,68,0.00,,---,0.00,VWS V14.01,2013-02-07 01:49:00,
2013-02-06 20:54:00,39.4,31.1,30.16,ESE,106,0.0,1.0,72,0.00,,---,0.00,VWS V14.01,2013-02-07 01:54:00,
2013-02-06 20:59:00,39.3,31.0,30.17,ESE,106,0.0,1.0,72,0.00,,---,0.00,VWS V14.01,2013-02-07 01:59:00,
2013-02-06 21:00:00,39.2,30.6,30.17,ESE,106,0.0,1.0,71,0.00,,---,0.00,VWS V14.01,2013-02-07 02:00:00,
2013-02-06 21:04:00,39.2,30.6,30.17,ESE,106,0.0,0.0,71,0.00,,---,0.00,VWS V14.01,2013-02-07 02:04:00,
2013-02-06 21:09:00,39.1,30.9,30.17,ESE,106,0.0,0.0,72,0.00,,---,0.00,VWS V14.01,2013-02-07 02:09:00,
2013-02-06 21:14:00,38.9,30.7,30.16,ESE,106,0.0,1.0,72,0.00,,---,0.00,VWS V14.01,2013-02-07 02:14:00,
2013-02-06 21:19:00,38.8,30.6,30.16,ESE,106,0.0,1.0,72,0.00,,---,0.00,VWS V14.01,2013-02-07 02:19:00,
2013-02-06 21:24:00,38.7,30.5,30.16,ESE,106,0.0,1.0,72,0.00,,---,0.00,VWS V14.01,2013-02-07 02:24:00,
2013-02-06 21:29:00,38.6,30.4,30.17,ESE,106,0.0,1.0,72,0.00,,---,0.00,VWS V14.01,2013-02-07 02:29:00,
2013-02-06 21:30:00,38.6,30.4,30.17,ESE,106,0.0,1.0,72,0.00,,---,0.00,VWS V14.01,2013-02-07 02:30:00,
2013-02-06 21:34:00,38.6,30.0,30.17,ESE,106,0.0,1.0,71,0.00,,---,0.00,VWS V14.01,2013-02-07 02:34:00,
2013-02-06 21:39:00,38.7,30.5,30.16,ESE,106,0.0,1.0,72,0.00,,---,0.00,VWS V14.01,2013-02-07 02:39:00,
2013-02-06 21:44:00,38.8,30.2,30.16,ESE,106,0.0,1.0,71,0.00,,---,0.00,VWS V14.01,2013-02-07 02:44:00,
2013-02-06 21:49:00,39.0,30.8,30.16,ESE,106,0.0,1.0,72,0.00,,---,0.00,VWS V14.01,2013-02-07 02:49:00,
2013-02-06 21:54:00,39.1,30.5,30.16,ESE,106,0.0,1.0,71,0.00,,---,0.00,VWS V14.01,2013-02-07 02:54:00,
2013-02-06 21:59:00,39.2,31.0,30.16,ESE,106,1.0,1.0,72,0.00,,---,0.00,VWS V14.01,2013-02-07 02:59:00,
2013-02-06 22:00:00,39.2,30.6,30.16,ESE,106,0.0,1.0,71,0.00,,---,0.00,VWS V14.01,2013-02-07 03:00:00,
2013-02-06 22:04:00,39.3,30.4,30.16,ESE,106,0.0,0.0,70,0.00,,---,0.00,VWS V14.01,2013-02-07 03:04:00,
2013-02-06 22:09:00,39.4,30.8,30.16,ESE,106,0.0,1.0,71,0.00,,---,0.00,VWS V14.01,2013-02-07 03:09:00,
2013-02-06 22:14:00,39.5,30.9,30.15,ESE,106,0.0,1.0,71,0.00,,---,0.00,VWS V14.01,2013-02-07 03:14:00,
2013-02-06 22:19:00,39.6,31.0,30.15,ESE,106,0.0,1.0,71,0.00,,---,0.00,VWS V14.01,2013-02-07 03:19:00,
2013-02-06 22:24:00,39.7,31.1,30.15,ESE,106,0.0,1.0,71,0.00,,---,0.00,VWS V14.01,2013-02-07 03:24:00,
2013-02-06 22:29:00,39.7,30.7,30.16,ESE,106,0.0,1.0,70,0.00,,---,0.00,VWS V14.01,2013-02-07 03:29:00,
2013-02-06 22:30:00,39.7,30.7,30.16,ESE,106,0.0,1.0,70,0.00,,---,0.00,VWS V14.01,2013-02-07 03:30:00,
2013-02-06 22:34:00,39.6,30.6,30.16,ESE,106,0.0,0.0,70,0.00,,---,0.00,VWS V14.01,2013-02-07 03:34:00,
2013-02-06 22:39:00,39.5,30.5,30.16,ESE,106,0.0,0.0,70,0.00,,---,0.00,VWS V14.01,2013-02-07 03:39:00,
2013-02-06 22:44:00,39.4,30.4,30.16,ESE,106,0.0,0.0,70,0.00,,---,0.00,VWS V14.01,2013-02-07 03:44:00,
2013-02-06 22:49:00,39.3,30.4,30.17,ESE,106,0.0,0.0,70,0.00,,---,0.00,VWS V14.01,2013-02-07 03:49:00,
2013-02-06 22:54:00,39.2,30.2,30.17,ESE,106,0.0,0.0,70,0.00,,---,0.00,VWS V14.01,2013-02-07 03:54:00,
2013-02-06 22:59:00,39.0,30.1,30.17,ESE,106,0.0,0.0,70,0.00,,---,0.00,VWS V14.01,2013-02-07 03:59:00,
2013-02-06 23:00:00,38.9,30.3,30.17,ESE,106,0.0,0.0,71,0.00,,---,0.00,VWS V14.01,2013-02-07 04:00:00,
2013-02-06 23:04:00,38.7,30.1,30.17,ESE,106,0.0,0.0,71,0.00,,---,0.00,VWS V14.01,2013-02-07 04:04:00,
2013-02-06 23:09:00,38.5,29.9,30.17,ESE,106,0.0,0.0,71,0.00,,---,0.00,VWS V14.01,2013-02-07 04:09:00,
2013-02-06 23:14:00,38.2,30.3,30.17,ESE,106,0.0,0.0,73,0.00,,---,0.00,VWS V14.01,2013-02-07 04:14:00,
2013-02-06 23:18:00,37.9,30.0,30.17,ESE,106,0.0,0.0,73,0.00,,---,0.00,VWS V14.01,2013-02-07 04:18:00,
2013-02-06 23:23:00,37.6,30.1,30.17,ESE,106,0.0,0.0,74,0.00,,---,0.00,VWS V14.01,2013-02-07 04:23:00,
2013-02-06 23:28:00,37.3,29.8,30.18,ESE,106,0.0,0.0,74,0.00,,---,0.00,VWS V14.01,2013-02-07 04:28:00,
2013-02-06 23:30:00,37.1,29.6,30.19,ESE,106,0.0,1.0,74,0.00,,---,0.00,VWS V14.01,2013-02-07 04:30:00,
2013-02-06 23:33:00,37.0,29.8,30.20,ESE,106,0.0,1.0,75,0.00,,---,0.00,VWS V14.01,2013-02-07 04:33:00,
2013-02-06 23:38:00,36.9,30.0,30.21,ESE,106,0.0,1.0,76,0.00,,---,0.00,VWS V14.01,2013-02-07 04:38:00,
2013-02-06 23:43:00,36.7,30.2,30.21,ESE,106,0.0,1.0,77,0.00,,---,0.00,VWS V14.01,2013-02-07 04:43:00,
2013-02-06 23:48:00,36.5,30.3,30.20,ESE,106,0.0,1.0,78,0.00,,---,0.00,VWS V14.01,2013-02-07 04:48:00,
2013-02-06 23:53:00,36.3,30.1,30.21,ESE,106,0.0,1.0,78,0.00,,---,0.00,VWS V14.01,2013-02-07 04:53:00,
2013-02-06 23:58:00,36.1,29.9,30.20,ESE,106,0.0,1.0,78,0.00,,---,0.00,VWS V14.01,2013-02-07 04:58:00,